FW9437 Weather Reports


time (UTC)temp
C
wind
direction
speed
KPH
gust
KPH
rain 1hr
cm
rain 24hr
cm
rain mn
cm
humidity
%
barometer
mb
20260510204558 28 207 1.6 4.8 0.00 0.00 0.00 45 1015.8
20260510203057 28 300 3.2 4.8 0.00 0.00 0.00 48 1016.2
20260510201559 28 298 4.8 8.0 0.00 0.00 0.00 47 1016.2
20260510200117 28 308 1.6 4.8 0.00 0.00 0.00 44 1016.4
20260510194626 28 201 0.0 3.2 0.00 0.00 0.00 48 1016.6
20260510193107 29 223 0.0 3.2 0.00 0.00 0.00 49 1016.7
20260510191608 28 309 0.0 4.8 0.00 0.00 0.00 47 1016.7
20260510190100 27 112 0.0 6.4 0.00 0.00 0.00 44 1016.7
20260510184553 27 294 0.0 4.8 0.00 0.00 0.00 48 1016.7
20260510183057 27 326 1.6 4.8 0.00 0.00 0.00 50 1016.8
20260510181552 27 150 0.0 4.8 0.00 0.00 0.00 48 1016.8
20260510180056 27 311 3.2 8.0 0.00 0.00 0.00 47 1016.9
20260510174558 27 8 4.8 9.7 0.00 0.00 0.00 45 1017.1
20260510173101 26 312 3.2 12.9 0.00 0.00 0.00 50 1017.3
20260510171559 27 300 4.8 11.3 0.00 0.00 0.00 49 1017.4
20260510170106 27 216 3.2 12.9 0.00 0.00 0.00 53 1017.4
20260510164556 28 204 1.6 4.8 0.00 0.00 0.00 47 1017.5
20260510163058 27 0 0.0 3.2 0.00 0.00 0.00 51 1017.5
20260510161554 26 267 0.0 4.8 0.00 0.00 0.00 58 1017.3
20260510160055 25 334 4.8 8.0 0.00 0.00 0.00 57 1017.4
20260510154555 25 303 3.2 8.0 0.00 0.00 0.00 60 1017.4
20260510153052 25 0 1.6 6.4 0.00 0.00 0.00 59 1017.2
20260510151553 23 288 0.0 3.2 0.00 0.00 0.00 61 1017.2
20260510150055 23 298 0.0 6.4 0.00 0.00 0.00 66 1017.1
20260510144554 23 293 0.0 1.6 0.00 0.00 0.00 68 1017.1
20260510143055 22 0 0.0 3.2 0.00 0.00 0.00 69 1016.8
20260510141602 21 0 0.0 1.6 0.00 0.00 0.00 79 1016.9
20260510140056 20 0 0.0 3.2 0.00 0.00 0.00 84 1017.0
20260510134604 18 243 0.0 6.4 0.00 0.00 0.00 89 1017.2
20260510133107 17 0 0.0 1.6 0.00 0.00 0.00 92 1017.1
20260510131602 16 228 0.0 3.2 0.00 0.00 0.00 93 1017.1
20260510130054 15 0 0.0 1.6 0.00 0.00 0.00 95 1017.0
20260510124558 15 290 0.0 0.0 0.00 0.00 0.00 95 1016.8
20260510123102 13 0 0.0 1.6 0.00 0.00 0.00 95 1016.6
20260510121554 12 0 0.0 1.6 0.00 0.00 0.00 95 1016.6
20260510120056 12 0 0.0 0.0 0.00 0.00 0.00 94 1016.3
20260510114557 11 0 0.0 0.0 0.00 0.00 0.00 94 1016.1
20260510113055 11 0 0.0 0.0 0.00 0.00 0.00 94 1015.8
20260510111600 11 0 0.0 0.0 0.00 0.00 0.00 94 1015.4
20260510110055 11 0 0.0 0.0 0.00 0.00 0.00 94 1015.2
20260510104558 11 0 0.0 0.0 0.00 0.00 0.00 94 1014.8
20260510103100 11 0 0.0 0.0 0.00 0.00 0.00 93 1014.5
20260510101556 11 0 0.0 0.0 0.00 0.00 0.00 93 1014.4
20260510100055 11 0 0.0 0.0 0.00 0.00 0.00 93 1014.3
20260510094559 11 0 0.0 0.0 0.00 0.00 0.00 93 1014.1
20260510093059 11 0 0.0 0.0 0.00 0.00 0.00 93 1014.1
20260510091559 11 0 0.0 1.6 0.00 0.00 0.00 93 1014.2
20260510090059 11 0 0.0 0.0 0.00 0.00 0.00 93 1014.1
20260510084555 11 0 0.0 0.0 0.00 0.00 0.00 93 1014.0
20260510083057 11 0 0.0 0.0 0.00 0.00 0.00 93 1013.8
20260510081556 11 0 0.0 1.6 0.00 0.00 0.00 93 1013.8
20260510080054 11 0 0.0 0.0 0.00 0.00 0.00 92 1013.7
20260510074557 11 0 0.0 0.0 0.00 0.00 0.00 92 1013.8
20260510073112 11 0 0.0 0.0 0.00 0.00 0.00 92 1013.7
20260510071605 11 0 0.0 0.0 0.00 0.00 0.00 92 1013.9
20260510070056 11 0 0.0 0.0 0.00 0.00 0.00 92 1013.6
20260510064600 11 0 0.0 1.6 0.00 0.00 0.00 91 1013.4
20260510063058 11 0 0.0 0.0 0.00 0.00 0.00 92 1013.4
20260510061556 11 0 0.0 0.0 0.00 0.00 0.00 92 1013.4
20260510060055 11 0 0.0 0.0 0.00 0.00 0.00 91 1013.4
20260510054555 11 0 0.0 0.0 0.00 0.00 0.00 91 1013.4
20260510053054 12 0 0.0 0.0 0.00 0.00 0.00 90 1013.5
20260510051557 12 0 0.0 0.0 0.00 0.00 0.00 90 1013.4
20260510050059 12 0 0.0 0.0 0.00 0.00 0.00 90 1013.4
20260510044554 12 0 0.0 1.6 0.00 0.00 0.00 89 1013.4
20260510043108 12 0 0.0 1.6 0.00 0.00 0.00 89 1013.4
20260510041558 12 0 0.0 0.0 0.00 0.00 0.00 88 1013.4
20260510040109 13 0 0.0 0.0 0.00 0.00 0.00 87 1013.2
20260510034600 13 0 0.0 0.0 0.00 0.00 0.00 87 1013.3
20260510033055 13 0 0.0 1.6 0.00 0.00 0.00 86 1013.4
20260510031557 14 0 0.0 1.6 0.00 0.00 0.00 85 1013.4
20260510030053 14 0 0.0 0.0 0.00 0.00 0.00 84 1013.2
20260510024555 14 0 0.0 0.0 0.00 0.00 0.00 83 1013.0
20260510023055 15 0 0.0 0.0 0.00 0.00 0.00 83 1013.0
20260510021600 15 0 0.0 1.6 0.00 0.00 0.00 83 1012.7
20260510020055 16 98 1.6 1.6 0.00 0.00 0.00 82 1012.6
20260510014611 16 98 0.0 1.6 0.00 0.00 0.00 80 1012.2
20260510013055 17 0 0.0 0.0 0.00 0.00 0.00 79 1012.2
20260510011553 17 0 0.0 1.6 0.00 0.00 0.00 78 1011.9
20260510010054 18 0 0.0 1.6 0.00 0.00 0.00 74 1011.9
20260510004556 20 98 0.0 1.6 0.00 0.00 0.00 72 1011.7
20260510003058 20 98 0.0 1.6 0.00 0.00 0.00 68 1011.5
20260510001555 22 0 0.0 1.6 0.00 0.00 0.00 61 1011.5
20260510000059 23 0 0.0 0.0 0.00 0.00 0.00 52 1011.3
20260509234607 24 0 0.0 0.0 0.00 0.00 0.00 49 1011.2
20260509233101 25 0 0.0 1.6 0.00 0.00 0.00 48 1011.2
20260509231558 25 0 0.0 0.0 0.00 0.00 0.00 47 1011.0
20260509230058 25 0 0.0 1.6 0.00 0.00 0.00 44 1011.0
20260509224605 26 0 0.0 4.8 0.00 0.00 0.00 43 1011.1
20260509223059 26 0 0.0 4.8 0.00 0.00 0.00 44 1011.0
20260509221606 27 283 0.0 3.2 0.00 0.00 0.00 43 1011.0
20260509220100 27 0 1.6 6.4 0.00 0.00 0.00 42 1011.0
20260509214607 28 0 0.0 3.2 0.00 0.00 0.00 39 1011.1
20260509213110 28 0 1.6 6.4 0.00 0.00 0.00 38 1011.0
20260509211602 27 222 1.6 6.4 0.00 0.00 0.00 41 1011.0
20260509210116 26 333 3.2 6.4 0.00 0.00 0.00 44 1010.9